Watertown, NY

1:14 PM EST on December 05, 2019 (GMT -0500)
Watertown International

Weather History for KART - November, 2019

Change the Weather History Date:

Friday, November 15, 2019

  Actual Average Record
Temperature  
Mean Temperature 30 °F 39 °F  
Max Temperature 38 °F 47 °F 66 °F (1956)
Min Temperature 21 °F 30 °F 11 °F (1972)
Degree Days  
Heating Degree Days 35 26  
Month to date heating degree days 485 360  
Since 1 July heating degree days 1126 1156  
Cooling Degree Days 0 0  
Month to date cooling degree days 0 0  
Year to date cooling degree days 348 362  
Moisture  
Dew Point 26 °F    
Average Humidity 68    
Maximum Humidity 76    
Minimum Humidity 50    
Precipitation  
Precipitation T in 0.13 in 0.92 in (1973)
Month to date precipitation 0.98 1.84  
Year to date precipitation 40.25 31.01  
Sea Level Pressure  
Sea Level Pressure 30.17 in    
Wind  
Wind Speed 14 mph ()    
Max Wind Speed 26 mph    
Max Gust Speed 36 mph    
Visibility 8.8 miles    
Events Snow    
T = Trace of Precipitation, MM = Missing Value Source: Averaged Metar Reports

Daily Weather History Graph

Daily Weather History Graph

Search for Another Location

Airport or City:

Astronomy

Nov. 15, 2019 Rise Set
Actual Time 6:58 AM EST 4:38 PM EST
Civil Twilight 6:27 AM EST 5:09 PM EST
Nautical Twilight 5:52 AM EST 5:44 PM EST
Astronomical Twilight 5:18 AM EST 6:18 PM EST
Moon 7:07 PM EST (11/15) 9:56 AM EST (11/15)
Length of Visible Light 10h 41m
Length of Day
9h 39m
Waning Gibbous, 90% of the Moon is Illuminated
Nov 15
Waning Gibbous
Nov 19
Last Quarter
Nov 26
New
Dec 4
First Quarter
Dec 12
Full

Hourly Weather History & Observations

Time (EST) Temp. Windchill Dew Point Humidity Pressure Visibility Wind Dir Wind Speed Gust Speed Precip Events Conditions
12:56 AM 36.0 °F 28.5 °F 25.0 °F 64% 30.12 in 10.0 mi SSW 10.4 mph 19.6 mph N/A   Overcast
1:56 AM 36.0 °F 29.0 °F 25.0 °F 64% 30.11 in 10.0 mi SSW 9.2 mph - N/A   Overcast
2:56 AM 37.0 °F 27.4 °F 28.0 °F 70% 30.10 in 10.0 mi SW 17.3 mph 23.0 mph N/A   Overcast
3:56 AM 37.9 °F 28.2 °F 28.9 °F 70% 30.09 in 10.0 mi SW 18.4 mph - N/A   Overcast
4:38 AM 37.9 °F 28.2 °F 28.9 °F 70% 30.07 in 9.0 mi SW 18.4 mph 31.1 mph N/A   Overcast
4:53 AM 37.4 °F 28.9 °F 30.2 °F 75% 30.08 in 9.0 mi WSW 13.8 mph 24.2 mph N/A   Overcast
4:56 AM 37.9 °F 28.9 °F 30.0 °F 73% 30.09 in 9.0 mi WSW 16.1 mph 24.2 mph N/A   Overcast
5:56 AM 37.9 °F 27.6 °F 28.9 °F 70% 30.09 in 9.0 mi SW 20.7 mph 28.8 mph N/A   Overcast
6:56 AM 37.0 °F 25.6 °F 28.9 °F 73% 30.10 in 9.0 mi WSW 24.2 mph 33.4 mph N/A   Overcast
7:56 AM 37.0 °F 27.0 °F 28.0 °F 70% 30.11 in 7.0 mi WSW 18.4 mph 27.6 mph N/A   Overcast
8:56 AM 37.0 °F 27.0 °F 28.9 °F 73% 30.12 in 5.0 mi WSW 18.4 mph 29.9 mph N/A   Haze
9:56 AM 37.0 °F 27.0 °F 28.9 °F 73% 30.12 in 7.0 mi WSW 18.4 mph 31.1 mph N/A   Overcast
10:56 AM 37.0 °F 26.7 °F 30.0 °F 76% 30.12 in 8.0 mi WSW 19.6 mph 32.2 mph N/A   Overcast
11:56 AM 37.0 °F 27.7 °F 30.0 °F 76% 30.11 in 7.0 mi WSW 16.1 mph 29.9 mph N/A   Overcast
12:56 PM 37.9 °F 27.9 °F 30.0 °F 73% 30.10 in 8.0 mi WSW 19.6 mph 35.7 mph N/A   Overcast
1:56 PM 37.9 °F 27.1 °F 30.0 °F 73% 30.11 in 8.0 mi West 23.0 mph 34.5 mph N/A   Overcast
2:56 PM 37.9 °F 28.5 °F 30.0 °F 73% 30.12 in 7.0 mi West 17.3 mph 28.8 mph N/A   Overcast
3:56 PM 37.0 °F 26.7 °F 30.0 °F 76% 30.14 in 8.0 mi West 19.6 mph - N/A   Overcast
4:56 PM 37.9 °F 28.2 °F 28.9 °F 70% 30.17 in 10.0 mi West 18.4 mph 26.5 mph N/A   Overcast
5:56 PM 37.9 °F 28.5 °F 27.0 °F 65% 30.22 in 10.0 mi West 17.3 mph 24.2 mph N/A   Overcast
6:56 PM 36.0 °F 25.3 °F 26.1 °F 67% 30.25 in 10.0 mi WNW 19.6 mph 26.5 mph 0.00 in   Overcast
7:56 PM 34.0 °F 23.8 °F 23.0 °F 64% 30.29 in 8.0 mi NNW 16.1 mph - 0.00 in Snow Light Snow
8:56 PM 30.9 °F 19.8 °F 17.1 °F 57% 30.35 in 10.0 mi North 16.1 mph 27.6 mph 0.00 in   Overcast
9:56 PM 28.0 °F 17.0 °F 12.0 °F 51% 30.38 in 10.0 mi North 13.8 mph - N/A   Clear
10:56 PM 25.0 °F 13.1 °F 9.0 °F 51% 30.42 in 10.0 mi North 13.8 mph - N/A   Clear
11:56 PM 21.9 °F 11.0 °F 9.0 °F 58% 30.46 in 10.0 mi North 10.4 mph - N/A   Clear